Location: Slidell
(30.2789°N, 89.7378°W)
Time: 02:01:28
(UTC-06:00)

Daily predictions for brighter satellites

Satellite Brightness Start Highest point End
(mag) Time Altitude Azimuth Time Altitude Azimuth Time Altitude Azimuth
Cosmos 2333 Rocket 4.5 03:39:22 20° ESE 03:39:22 20° ESE 03:41:29 10° ESE
Cosmos 2219 Rocket 4.3 03:56:21 20° SE 03:56:21 20° SE 03:58:03 10° SE
NOSS 0 Rocket 4.3 04:21:19 59° SE 04:21:19 59° SE 04:26:21 10° SSE
Cosmos 2237 Rocket 2.8 04:22:48 54° E 04:22:48 54° E 04:28:02 10° SE
SL-16 R/B 4.2 04:22:49 14° NNE 04:26:21 23° ENE 04:30:48 10° ESE
Cosmos 2297 Rocket 4.3 04:33:23 15° NNE 04:33:23 15° NNE 04:34:22 10° NNE
ATLAS 2A CENTAUR R/B 3.6 04:36:03 48° SE 04:36:03 48° SE 04:38:28 10° E
BREEZE-M DEB (TANK) 3.5 04:52:33 63° N 04:52:55 66° NE 04:55:55 10° ESE
Cosmos 371 Rocket 4.0 05:02:15 38° SSW 05:02:15 38° SSW 05:05:28 10° S
Ariane Rocket 4.3 04:56:00 10° NNE 05:00:47 41° E 05:05:34 10° S
Thor Agena Rocket 3.5 04:59:11 10° S 05:04:21 64° WSW 05:04:59 59° WNW
Meteor 1-21 Rocket 4.1 05:05:58 53° WNW 05:06:49 59° W 05:12:14 10° S
Cosmos 1674 4.0 05:09:04 29° S 05:09:04 29° S 05:11:04 10° S
Cosmos 1980 3.8 05:09:36 48° WSW 05:09:39 48° WSW 05:15:01 10° S
Tsikada Rocket 3.9 05:04:47 10° NNW 05:11:07 69° W 05:17:19 10° S
Tiangong 2 2.7 05:19:36 25° S 05:20:39 32° SE 05:23:30 10° ENE
Cosmos 2333 Rocket 3.1 05:21:27 29° WSW 05:21:27 29° WSW 05:25:37 10° SSW
SKYMED 2 3.5 05:19:40 10° SSE 05:23:59 85° E 05:28:09 11° N
CZ-4 R/B 4.0 05:20:56 10° NE 05:24:12 23° E 05:27:30 10° SSE
Cosmos 968 Rocket 3.6 05:19:33 10° SSW 05:24:39 51° WNW 05:29:47 10° N
CZ-3 R/B 4.0 05:21:34 22° W 05:29:39 29° SW 05:36:38 10° S
GPS 2-05 Rocket1 3.3 05:31:03 39° N 05:31:03 39° N 05:34:08 10° ENE
Cosmos 2219 Rocket 4.0 05:38:09 13° SW 05:38:09 13° SW 05:39:11 10° SW
ATLAS 2A CENTAUR R/B 4.1 05:26:53 20° W 05:42:08 68° SSW 05:47:09 10° ESE
Cosmos 1072 Rocket 4.4 05:37:25 10° S 05:43:38 87° W 05:49:48 10° N
Cosmos 1328 3.7 05:40:46 10° NNW 05:44:42 63° W 05:48:38 10° S
USA 229 DEB 3.8 05:38:23 13° NW 05:44:46 69° WSW 05:51:58 10° SSE
USA 229 3.8 05:38:27 13° NW 05:44:52 70° WSW 05:52:04 10° SSE
Cosmos 2221 2.5 05:41:43 10° S 05:46:04 89° E 05:50:24 10° N
Cosmos 304 Rocket 3.7 05:43:29 11° NNW 05:48:04 64° WSW 05:52:47 10° S
Cosmos 1461 4.3 05:48:17 19° WSW 05:48:20 19° WSW 05:51:17 10° SSW
ATLAS 3B CENTAUR R/B 4.3 05:42:52 10° SW 05:48:43 49° SSE 06:04:57 10° E
ISS -1.5 05:48:48 12° NNW 05:51:10 26° NE 05:53:58 10° E
Aureole 1 4.1 05:48:23 10° SSW 05:51:19 57° WNW 05:54:30 10° N
OAO 2 Rocket 3.6 05:48:32 22° WNW 05:51:32 53° N 05:56:21 10° E
Cosmos 2227 4.2 05:47:39 10° SW 05:53:07 55° WNW 05:58:38 10° N
CSL-04 Rocket 3.6 05:51:21 10° N 05:56:34 63° WNW 06:01:46 10° SSW
Cosmos 1777 Rocket 4.2 05:53:19 10° SW 05:58:21 48° WNW 06:03:24 10° N
Cosmos 2058 2.8 05:55:34 10° N 05:59:41 81° W 06:03:49 10° S
Aureole 2 Rocket 4.0 06:00:01 17° WNW 06:01:57 24° W 06:05:13 10° SSW
SWIFT 4.4 06:02:57 10° SW 06:05:57 19° S 06:08:55 10° SE
Cosmos 2237 Rocket 3.7 06:04:42 14° W 06:05:58 15° W 06:08:59 10° SW
Gbstr 26 Del rocket 4.1 06:01:50 10° SSW 06:06:52 67° SE 06:13:13 10° NE
DELTA 2 R/B (1) 3.8 06:02:14 13° W 06:07:09 54° NNW 06:12:36 10° ENE
SL-16 R/B 2.8 06:05:19 10° NW 06:10:28 37° WSW 06:15:36 10° S
COSMO-SKYMED 1 3.7 06:08:35 10° SSW 06:12:04 23° W 06:15:34 10° NW
Cosmos 1703 3.3 06:10:02 10° N 06:13:57 82° E 06:17:53 10° S
Helios 1B rocket 4.3 06:11:15 10° SE 06:14:55 32° ENE 06:18:35 10° N
Cosmos 2228 Rocket 4.2 06:12:14 10° SSE 06:16:32 49° E 06:20:49 10° NNE
IDEFIX/ARIANE 42P 2.6 06:14:15 10° N 06:19:32 80° WNW 06:24:47 10° SSW
USA 234 4.4 06:15:19 10° ESE 06:21:18 39° NE 06:27:17 10° NNW
Cosmos 2344 3.7 06:13:35 10° SSW 06:21:22 89° WNW 06:29:30 10° NNE
ERBS 3.4 06:19:15 10° NNW 06:22:31 41° NE 06:25:45 10° ESE
Cosmos 2151 3.9 06:19:07 10° NNW 06:22:42 28° W 06:26:19 10° SSW
AQUARIUS 4.1 06:19:19 10° N 06:23:49 77° WNW 06:28:17 10° SSW
Cosmos 1271 Rocket 4.2 06:21:18 10° WSW 06:23:52 17° WNW 06:26:26 10° NW
Cosmos 1356 Rocket 3.4 06:20:02 10° N 06:24:10 88° W 06:28:20 10° S
Meteor 1-28 Rocket 4.5 06:22:33 10° SSW 06:25:30 22° W 06:28:27 10° NW
SJ-7 4.3 06:22:02 10° N 06:26:03 74° WNW 06:30:05 10° SSW
Cosmos 1805 Rocket 3.5 06:22:35 10° NNW 06:26:58 67° W 06:31:17 10° S
Cosmos 1340 Rocket 3.4 06:23:25 10° NNW 06:27:01 35° W 06:30:39 10° SSW
IUS-9 SRM-1 2.5 06:28:43 10° W 06:32:06 35° S 06:33:51 10° ESE
